Hourly Weather Roundup
Issued by NWS Central Illinois

Home | Current Version | Previous Version | Text Only | Print | Product List | Glossary On
Versions: 1 2 3 4 5 6 7 8 9 10 11 12 13 14 15 16 17 18 19 20 21 22 23 24 25 26 27 28 29 30 31 32 33 34 35 36 37 38 39 40 41 42 43 44 45 46 47 48 49 50
000
NZUS43 KILX 010110
HWRILX

AREA WEATHER ROUNDUP
NATIONAL WEATHER SERVICE, LINCOLN IL
800 PM CDT MON AUG 31 2015


CITY           SKY/WX    TMP DP  RH WIND       PRES   REMARKS
BLOOMINGTON    PTCLDY    79  71  76 SE9       30.04S HX  82
CHAMPAIGN      CLEAR     75  69  81 S5        30.05R
DANVILLE       CLEAR     73  70  90 CALM      30.03R
DECATUR        CLEAR     79  71  76 S5        30.04R HX  82
EFFINGHAM      CLEAR     76  70  81 E3        30.06R
FLORA          CLEAR     76  68  77 SE3       30.06R
GALESBURG      CLEAR     79  72  79 SE3       29.99R HX  81
JACKSONVILLE   PTCLDY    83  73  72 S7        30.01R HX  89
LACON          PTCLDY    79  72  78 SE7       29.99S HX  82
LAWRENCEVILLE  CLEAR     75  68  78 S7        30.06R
LITCHFIELD     CLEAR     77  71  80 SE6       30.03R
$$


CITY           SKY/WX    TMP DP  RH WIND       PRES   REMARKS
LINCOLN        CLEAR     81  69  68 S6        30.01R HX  84
MACOMB         CLEAR     78  71  79 S3        30.01R
MATTOON        HAZE      75  69  81 S3        30.05R VSB 3/4
MT CARMEL AP   CLEAR     75  68  78 CALM      30.06R
OLNEY-NOBLE AP CLEAR     75  70  83 S5        30.06R
PARIS          CLEAR     75  70  84 SW3       30.06R
PEORIA         MOCLDY    83  69  62 SE3       30.00S HX  86
PONTIAC        CLEAR     76  73  91 S3        30.03R
RANTOUL        CLEAR     78  72  82 S5        30.04R HX  81
ROBINSON       CLEAR     74  69  84 S3        30.06S
SPRINGFIELD    PTCLDY    81  71  71 S7        30.01S HX  85
TAYLORVILLE    CLEAR     77  72  83 SE5       30.03R
$$

...REGIONAL REPORTS...


CITY           SKY/WX    TMP DP  RH WIND       PRES   REMARKS
CHICAGO O`HARE PTCLDY    78  68  71 E3        30.01S HX  80
KANKAKEE       CLEAR     76  70  82 CALM      30.04R
MOLINE         CLEAR     77  72  84 SE3       29.97S
MOUNT STERLING PTCLDY    78  73  83 SE6       29.99S HX  80
MOUNT VERNON   CLEAR     79  66  65 S3        30.06R HX  81
PITTSFIELD     PTCLDY    81  72  74 SE5       30.01R HX  85
QUINCY         CLEAR     79  72  79 SE5       29.99R HX  82
ROCKFORD       CLEAR     77  70  79 SE3       30.02S
$$


CITY           SKY/WX    TMP DP  RH WIND       PRES   REMARKS
BURLINGTON     CLEAR     81  73  76 SE6       29.97S HX  86
CEDAR RAPIDS   CLEAR     77  74  90 SE6       29.95F
DES MOINES     PTCLDY    81  71  71 S6        29.92S HX  85
KIRKSVILLE     CLEAR     77  70  79 S7        29.98S
OTTUMWA        CLEAR     76  72  87 S5        29.93S
ST LOUIS       MOCLDY    83  71  67 SE10      30.02S HX  87
$$


CITY           SKY/WX    TMP DP  RH WIND       PRES   REMARKS
TERRE HAUTE    MOCLDY    79  68  69 S3        30.06R HX  81
EVANSVILLE     CLEAR     80  67  64 S3        30.07R HX  82
INDIANAPOLIS   PTCLDY    77  67  71 SW7       30.07R
LAFAYETTE      CLEAR     76  68  76 CALM      30.04R
MADISON        CLEAR     73  68  84 CALM      30.00S
MILWAUKEE      MOCLDY    71  66  84 S8        30.02R
$$




USA.gov is the U.S. government's official web portal to all federal, state and local government web resources and services.